Tracking 35275 objects as of 9-Sep-2026
HD Live streaming from Space Station
objects crossing your sky now

SL-6 DEB


SL-6 DEB is no longer on orbit


NORAD ID: 13705
Int'l Code: 1982-115N
Launch date: December 8, 1982
Source: Commonwealth of Independent States (former USSR) (CIS)
Launch site: TYURATAM MISSILE AND SPACE COMPLEX (TTMTR)
Decay date: 1985-05-26

Note: This is SATELLITE DEBRIS
Your satellite tracking list
Your tracking list is empty




NASA's NSSDC Master Catalog

Two Line Element Set (TLE):
1 13705U 82115  N 92152.00635616  .00000895 +00000-0 +21122-3 0  9992
2 13705 099.1900 150.9906 0107163 046.8206 314.1880 14.53727896298578
Source of the keplerian elements: AFSPC